COSMOS 1089

导读

COSMOS 1089是苏联“宇宙”(COSMOS)系列卫星,1979年3月21日8时从独联体(CIS)发射。宇宙系列是苏联/俄罗斯多种军用卫星及科研试验卫星的统称,承担空间环境探测、技术验证等任务。该卫星入轨后,为航天技术发展、空间科学观测积累了早期数据,是冷战时期苏联航天工程发展的见证,推动了苏联航天体系的技术迭代。

Basic Information
目录编号:
11308
目录名称:
COSMOS 1089
国际标识:
1979-026A
轨道中心:
EARTH
卫星名称:
COSMOS 1089
卫星全名:
--
卫星状态:
在轨 (已飞行17341 天)
发射日期:
1979-03-21 UTC
国别 :
俄罗斯(独联体) (CIS)
星等 :
--
This satellite is enrolled in the Space Conjunction Data Service (SCDS) and the current flight risk assessment level is: No High Risk
Orbit Information
数据来源 国际轨道数据 AOE轨道数据
星历时间 2026-09-10T23:35:07+0800
16小时前
查看轨道信息
2026-09-10T00:00:00+0800
1天前
查看轨道信息
半长轴 7358.296km 7358.297km
偏心率 0.0023371 0.0023077
轨道倾角 82.971° 82.971°
近地点辐角 135.696° 137.941°
升交点赤经 92.051° 92.777°
平近点角 293.491° 108.027°
近地点 962.961km 963.179km
远地点 997.357km 997.141km
周期 104.695分钟 104.695分钟
每日圈数 13.754251 13.754247
Detailed Information
使用方式:
暂无
2D Orbit Map
3D Orbit Map
Orbit Altitude Analysis Chart
Orbit Inclination Analysis Chart
Orbit Comprehensive Analysis Chart
View Comprehensive Chart
Miss Distance Evolution Trend with All Objects
Collision Probability Evolution Trend with All Objects